Weather History for Missoula, MT

Change the Weather History Date:

Thursday, October 7, 2010

  Actual Average Record
Temperature  
Mean Temperature 57 °F 49 °F  
Max Temperature 67 °F 63 °F 80 °F (2014)
Min Temperature 46 °F 35 °F 21 °F (1894)
Degree Days  
Heating Degree Days 8 16  
Month to date heating degree days 37 106  
Since 1 July heating degree days 347 431  
Cooling Degree Days 0 0  
Month to date cooling degree days 3 0  
Year to date cooling degree days 244 332  
Growing Degree Days 6 (Base 50)    
Moisture  
Dew Point 48 °F    
Average Humidity 79    
Maximum Humidity 100    
Minimum Humidity 58    
Precipitation  
Precipitation 0.58 in 0.02 in 1.92 in (1893)
Month to date precipitation 0.83 0.20  
Year to date precipitation 13.13 11.40  
Snow  
Snow 0.00 in - - ()
Month to date snowfall 0.0  
Year to date snowfall 8.8  
Since 1 July snowfall 0.0  
Snow Depth 0.00 in    
Sea Level Pressure  
Sea Level Pressure 30.00 in    
Wind  
Wind Speed 3 mph (WNW)    
Max Wind Speed 24 mph    
Max Gust Speed 30 mph    
Visibility 10 miles    
Events Rain , Thunderstorm    
T = Trace of Precipitation, MM = Missing Value Source: NWS Daily Summary

Daily Weather History Graph

Daily Weather History Graph

Search for Another Location

Airport:

Trip Planner

Search our weather history database for the weather conditions in past years. The results will help you decide how hot, cold, wet, or windy it might be!

Date:

Astronomy

Oct. 07, 2010 Rise Set
Actual Time 7:43 AM MDT 7:04 PM MDT
Civil Twilight 7:12 AM MDT 7:34 PM MDT
Nautical Twilight 6:37 AM MDT 8:09 PM MDT
Astronomical Twilight 6:02 AM MDT 8:45 PM MDT
Moon 7:43 AM MDT (10/7) 6:37 PM MDT (10/7)
Length of Visible Light 12h 21m
Length of Day
11h 20m
Waning Crescent, 0% of the Moon is Illuminated
Oct 7
Waning Crescent
Oct 7
New
Oct 14
First Quarter
Oct 22
Full
Oct 30
Last Quarter

Hourly Weather History & Observations

Time (MDT) Temp. Dew Point Humidity Pressure Visibility Wind Dir Wind Speed Gust Speed Precip Events Conditions
12:53 AM 50.0 °F 46.9 °F 89% 30.02 in 10.0 mi NNW 3.5 mph - N/A   Clear
1:53 AM 48.9 °F 46.0 °F 90% 30.01 in 10.0 mi Calm Calm - N/A   Scattered Clouds
2:53 AM 51.1 °F 48.0 °F 89% 30.00 in 10.0 mi South 3.5 mph - 0.00 in Rain Light Rain
3:53 AM 50.0 °F 48.0 °F 93% 29.99 in 10.0 mi Calm Calm - 0.00 in   Clear
4:53 AM 46.9 °F 46.0 °F 97% 29.98 in 9.0 mi NW 3.5 mph - N/A   Partly Cloudy
5:53 AM 48.0 °F 46.0 °F 93% 29.98 in 10.0 mi Calm Calm - N/A   Clear
6:53 AM 46.9 °F 46.0 °F 97% 29.99 in 10.0 mi Calm Calm - N/A   Mostly Cloudy
7:53 AM 48.0 °F 46.9 °F 96% 29.99 in 10.0 mi Calm Calm - N/A   Overcast
8:53 AM 48.0 °F 46.9 °F 96% 30.02 in 10.0 mi Calm Calm - N/A   Overcast
9:53 AM 51.8 °F 48.2 °F 88% 30.03 in 10.0 mi WSW 4.6 mph - N/A   Overcast
10:53 AM 57.0 °F 50.0 °F 77% 30.02 in 10.0 mi Calm Calm - N/A   Mostly Cloudy
11:53 AM 57.0 °F 50.0 °F 77% 30.01 in 10.0 mi WNW 5.8 mph - N/A   Mostly Cloudy
12:53 PM 60.1 °F 51.1 °F 72% 29.99 in 10.0 mi Calm Calm - N/A   Partly Cloudy
1:53 PM 62.1 °F 51.1 °F 67% 29.97 in 10.0 mi Calm Calm - N/A   Mostly Cloudy
2:53 PM 64.0 °F 52.0 °F 65% 29.94 in 10.0 mi West 3.5 mph - N/A   Mostly Cloudy
3:53 PM 66.9 °F 51.1 °F 57% 29.93 in 10.0 mi North 5.8 mph - 0.00 in   Mostly Cloudy
4:53 PM 64.0 °F 51.1 °F 63% 29.93 in 10.0 mi North 12.7 mph - N/A   Mostly Cloudy
5:09 PM 62.6 °F 50.0 °F 63% 29.94 in 10.0 mi North 10.4 mph - N/A Thunderstorm Thunderstorm
5:40 PM 55.4 °F 48.2 °F 77% 29.99 in 4.0 mi SW 24.2 mph 29.9 mph 0.01 in Rain , Thunderstorm Heavy Thunderstorms and Rain
5:53 PM 52.0 °F 48.0 °F 86% 30.01 in 3.0 mi WNW 16.1 mph - 0.23 in Rain , Thunderstorm Heavy Thunderstorms and Rain
5:55 PM 51.8 °F 48.2 °F 88% 29.99 in 10.0 mi WNW 17.3 mph - 0.21 in Rain Heavy Rain
6:02 PM 53.6 °F 48.2 °F 82% 29.99 in 10.0 mi NW 11.5 mph - 0.26 in Rain Heavy Rain
6:53 PM 54.0 °F 48.0 °F 80% 30.01 in 10.0 mi North 5.8 mph - 0.30 in   Scattered Clouds
7:53 PM 50.0 °F 48.0 °F 93% 30.03 in 10.0 mi Calm Calm - N/A   Clear
8:53 PM 50.0 °F 48.0 °F 93% 30.04 in 10.0 mi WNW 4.6 mph - N/A   Overcast
9:53 PM 51.8 °F 48.2 °F 88% 30.05 in 10.0 mi SW 3.5 mph - N/A   Mostly Cloudy
10:53 PM 51.8 °F 48.2 °F 88% 30.05 in 10.0 mi East 3.5 mph - N/A   Overcast
11:53 PM 48.0 °F 46.9 °F 96% 30.05 in 9.0 mi Calm Calm - N/A   Scattered Clouds